Disclaimer

Please do not use the information listed here in-flight or in-navigation, as they are not provided to us by the airports but are provided by volunteers, so they might be outdated.

Search


Regions


Airport information page

Radio informations:
BERGERAC TWR - 119.8 MHz

Airport informations:
Latitude: 44° 49' 31.00" N
Longitude: 000° 31' 07.00" E
Elevation: 171 feet - 52 meters
Operating hours: Remarks
Operating agency: Civil government, landing fees and diplomatic clearance may be required
Timezone: UTC+1(+2DT) - Last Sunday in March to last Sunday in October
Fuel: Jet A1, without icing nhibitor.

100/130 MIL Spec, low lead, aviation gasoline (BLUE)

Runway information:
10/28 - 7234 x 148 feet< - >2205 x 45 meters

Recent METARs:
LFBE 212030Z AUTO 28003KT 9999 OVC014 01/M00 Q1023 TEMPO 0800 FG NSC
LFBE 212100Z AUTO 28004KT 9999 OVC014 02/00 Q1023 TEMPO 0800 FG NSC
LFBE 212130Z AUTO 35005KT 9999 BKN017 OVC022 02/M00 Q1023

Airport on the map: